星链-35969(STARLINK-35969)

导读 | 豆包AI

STARLINK-35969是美国SpaceX星链星座中的一颗卫星,于北京时间2025年11月19日发射升空,是星链低轨互联网星座组网进程中的组成部分。星链项目旨在为全球提供高速低延迟互联网服务,该卫星的发射延续了SpaceX持续扩充星链星座规模、完善全球覆盖能力的节奏。

基本信息
目录编号:
66523
目录名称:
STARLINK-35969
国际标识:
2025-265H
轨道中心:
EARTH
卫星名称:
星链-35969
卫星全名:
星链-35969(STARLINK-35969)
卫星状态:
在轨 (已飞行161 天)
发射日期:
2025-11-19 UTC
国别 :
美国 (US)
星等 :
--
轨道信息
数据来源 国际轨道数据
星历时间: 2026-04-29T00:58:13+0800
10小时前
查看轨道信息
半长轴: 6861.161km
偏心率: 0.0000385
轨道倾角: 43.003°
近地点辐角 288.856°
升交点赤经 355.402°
平近点角 71.225°
近地点: 482.759km
远地点: 483.289km
周期: 94.266分钟
每日圈数: 15.275886
详细信息
固有亮度:
5
最大亮度:
2.5
卫星平台:
Starlink V1.0
覆盖范围:
全球
运营商:
太空探索技术公司
运营商所在国:
美国
制造商(研发单位):
太空探索技术公司
制造商所在国:
美国
使用方式:
暂无
卫星简介
Starlink 计划是 SpaceX 推出的全球卫星互联网项目,通过发射低轨道卫星,为全球尤其是偏远地区提供高速、低延迟的互联网服务。自 2019 年起,Starlink 已部署数千颗卫星,旨在缩小全球数字鸿沟,推动互联网普及。该项目还为军事、航空等行业提供通信支持,带来广泛经济效益。
2D轨道图
3D轨道图
轨道高度分析图
轨道倾角分析图
轨道综合分析图
查看轨道综合分析图